Find Hawk A

NORAD ID: 43765 Int'l Des: 2018-099 Owner: HE360 Country: US Constellation: hawkeye-360 operational
LEOCIRCULARRETROGRADESSO

Live-Position

3D-Globus wird geladen...

Über Hawk A

Beschreibung wird geladen...

Nächste Überflüge

Passes for default location (London). Set your location on the main map for personalized predictions.

Höhenverlauf

Loading altitude history...

Zweizeiliger Elementsatz

1 43765U 18099H 26119.63981752 .00007624 00000-0 31159-3 0 9993
2 43765 97.3960 172.5212 0037030 96.6304 263.9151 15.24008497405705
Epoch: 29. Apr. 2026 • Age: 12 hours

Aktueller Status

Höhe 516.6 km
Geschwindigkeit 7.60 km/s
Subsatellitenpunkt -31.05°S, 80.88°E
Startdatum 3. Dez. 2018
Alter 7.4 years
Typ other

Technische Details

Klassifizierung Payload
Masse 12.75 kg
Trockenmasse 12.00 kg
Gesamtmasse 12.75 kg
Länge 0.44 m
Durchmesser 0.20 m
Spannweite 0.44 m
Form Box
Hersteller UTIAS
Bus-Typ Nemo-V1
Phasenstatus In Orbit
Besitzer/Staat HE360/US

Most Searched